Погода в Макинске

Казахстан     52°38′10″N   70°24′58″E
темп.,
°C
ветер,
м/с
пор.,
м/с
влажн.,
%
обл.,
%
осадки,
мм/ч
давл.,
гПа
погр.,
м
2 марта, вт
вт200:00−17зсз349788 0.1 101750
03:00−19з349717 0.0 101846
06:00−19зюз339725 0.0 101836
09:00−16зюз249698 0.0 1018121
12:00−13юз359492 0.1 1017256
15:00−11зюз469495 0.0 1016299
18:00−13зюз479496 0.1 1016288
21:00−15зюз4109794 0.0 1016208
3 марта, ср
ср300:00−16юз5119792 0.1 1017237
03:00−18юз7129786 0.0 1017260
06:00−19юз8149790 0.0 1018298
09:00−20юз8159997 0.0 1017280
12:00−16юз9159699 0.0 1017338
15:00−11юз101692100 0.0 1015523
18:00−8юз91790100 0.1 1014759
21:00−6юз91791100 0.1 1014870
4 марта, чт
чт400:00−4юз91693100 0.3 1012912
03:00−3юз81591100 0.2 1011957
06:00−3юз91694100 0.5 1010955
09:00−2юз111893100 0.5 10091060
12:00−2юз121893100 1.0 10091118
15:00−1ююз111894100 0.7 10071283
18:00−1юз101590100 2.1 10061041
21:00−2юз8149696 0.8 1005958
5 марта, пт
пт500:00−4зюз8149497 1.1 1008785
03:00−10зюз6149074 0.1 1010375
06:00−12зюз6129377 0.1 1014272
09:00−13юз715915 0.0 1016343
12:00−9юз12208912 0.0 1016679
15:00−6юз14238999 0.1 1015832
18:00−5юз132287100 0.1 1015849
21:00−6юз132189100 0.1 1016877
6 марта, сб
сб600:00−6юз122188100 0.2 1016873
03:00−6юз121989100 0.1 1015785
06:00−7юз101889100 0.2 1015633
09:00−8юз9179197 0.0 1015516
12:00−5зюз9149297 0.1 1016555
15:00−4зюз71191100 0.1 1017633
18:00−5зюз5992100 0.1 1018489
21:00−7юз4896100 0.0 1018199